Theta_e
326 325 324 322 322 322 322 321 321 322 321 322 322 321 321 321 321 321 322 324 325 325 325 325 324 323 313 307 307 319 324 327 317 312 310 307 304 304 300 301 303 302 302 302 304 303 303
327 326 325 324 322 321 322 321 321 322 322 322 321 321 320 321 321 321 322 323 325 325 325 324 323 321 308 305 316 317 313 312 312 311 308 308 305 306 302 301 301 301 301 301 302 301 301
327 326 326 325 324 322 321 322 320 320 322 322 321 321 320 321 321 321 322 323 324 325 323 322 321 316 307 309 318 317 312 310 311 310 308 308 309 306 304 300 302 300 298 301 301 300 300
328 327 326 325 324 323 322 322 321 320 321 321 321 320 320 320 321 321 321 322 324 321 321 322 321 310 308 308 321 315 313 310 310 310 309 309 309 306 303 302 300 298 297 296 299 299 298
328 327 326 325 324 324 323 322 322 320 319 321 320 319 320 320 320 320 321 322 322 320 321 321 313 308 306 313 311 313 312 308 307 308 308 307 307 303 302 299 297 296 295 294 297 298 298
329 327 325 325 324 324 323 322 321 320 320 320 320 319 319 320 320 320 320 322 320 317 316 314 310 306 305 302 306 307 308 308 306 306 305 305 303 300 299 297 293 295 293 293 295 297 297
323 326 326 325 324 323 323 322 321 321 320 320 320 319 320 320 320 320 321 319 312 309 310 308 306 305 302 303 305 305 307 305 305 303 299 299 297 294 298 299 298 296 295 295 295 296 296
322 322 326 325 324 323 322 321 321 322 321 320 319 320 320 320 320 321 321 315 311 310 305 310 308 304 303 304 299 302 306 302 301 297 297 296 294 300 297 296 295 294 294 294 295 295 295
319 321 320 321 324 323 322 321 321 322 321 320 319 319 320 320 320 320 317 316 311 310 306 306 307 307 304 303 301 300 303 300 297 294 295 296 297 297 295 293 292 293 293 294 293 293 294
316 318 320 320 320 321 322 321 321 320 320 319 319 319 319 319 315 317 314 320 315 311 299 300 301 306 301 303 299 301 304 300 296 295 294 295 296 293 293 293 294 291 295 293 292 291 290
315 316 316 318 319 318 319 321 320 319 319 318 319 319 319 319 317 313 315 320 317 310 286 300 299 303 301 302 299 296 301 300 295 293 295 295 292 292 292 294 294 294 294 293 292 291 290
313 315 315 315 316 318 318 318 320 320 319 318 318 318 318 317 317 316 311 310 310 296 286 294 296 295 297 296 295 296 297 300 299 294 294 296 295 295 296 293 295 294 293 291 291 290 285
312 313 314 314 315 315 317 317 319 320 319 318 318 318 317 319 311 313 309 307 295 289 298 291 293 294 296 292 292 294 293 293 294 291 292 292 293 294 294 292 292 293 292 287 284 284 284
311 312 313 313 313 314 316 316 318 318 319 318 318 317 317 318 318 309 309 301 288 295 296 293 292 293 293 292 292 291 290 292 295 294 291 290 288 292 294 296 293 291 293 289 282 282 285
307 310 311 312 312 312 314 317 315 316 316 318 317 317 316 318 313 311 303 292 291 296 300 292 291 290 292 291 292 291 292 293 295 294 292 289 290 292 291 293 296 290 287 293 284 278 284
305 307 310 311 311 312 312 314 314 314 315 315 314 313 312 319 315 309 299 293 296 302 298 296 292 294 290 290 290 290 290 294 293 295 298 294 289 290 290 293 293 292 294 286 287 282 281
304 306 308 309 311 311 311 313 315 314 314 314 312 306 314 319 314 304 292 294 298 303 300 296 296 294 293 289 292 289 292 293 296 293 296 294 292 288 290 289 290 288 288 289 290 288 285
303 303 306 307 308 310 310 311 312 314 314 312 308 300 315 317 300 301 295 297 301 301 301 300 299 299 294 291 290 290 291 296 295 294 290 296 292 286 287 290 290 293 291 290 287 283 284
304 303 303 306 307 309 309 310 310 312 316 311 303 303 313 313 295 294 299 298 300 299 300 300 297 298 298 292 290 292 293 295 295 294 293 294 290 286 286 287 288 287 289 290 290 288 286
302 303 303 304 306 308 309 308 309 309 312 312 300 294 300 306 303 298 295 296 296 301 300 301 301 299 294 294 294 295 293 293 295 295 297 297 291 289 287 290 291 286 288 289 289 287 287
303 303 302 303 305 307 308 308 308 308 309 311 301 295 298 292 298 299 299 297 295 295 299 301 298 298 297 292 294 293 294 291 292 294 294 294 288 291 292 291 290 289 289 288 287 289 288
303 303 302 302 304 306 308 307 306 306 307 302 296 293 295 293 297 298 296 296 295 297 296 295 295 298 298 295 296 293 296 294 292 291 291 291 289 291 287 291 288 286 289 288 289 290 291
302 303 303 303 303 305 306 306 305 304 303 295 294 295 297 293 292 293 294 295 294 296 295 297 297 297 296 298 300 299 296 298 296 291 289 289 289 285 284 289 284 281 286 288 289 291 290
299 301 302 303 303 304 304 305 304 303 302 297 295 295 291 288 292 291 293 296 294 294 292 293 295 294 291 294 294 292 289 289 291 288 292 289 288 287 283 281 276 285 283 291 288 289 289
298 298 300 302 302 303 304 305 305 303 302 297 295 293 289 285 290 288 291 293 295 295 292 292 290 290 293 291 286 284 283 284 282 280 285 288 286 278 278 278 283 278 280 285 285 287 288
297 297 298 299 301 302 303 304 305 303 302 298 295 296 292 286 286 290 289 290 287 288 284 282 284 286 290 287 284 281 279 283 279 279 281 284 287 285 278 279 278 283 280 283 286 282 284
296 296 297 297 299 301 302 303 303 304 303 297 295 297 292 286 289 289 286 287 289 287 283 282 283 284 286 284 282 281 282 283 278 278 277 279 279 281 278 279 281 286 280 281 279 284 283
295 296 296 297 298 299 301 303 303 304 302 297 293 296 293 287 287 287 289 287 286 287 284 283 284 283 283 282 282 281 279 279 279 278 279 280 279 279 279 278 277 280 279 281 285 281 283
295 295 296 296 297 298 300 301 302 303 302 296 291 293 292 288 286 287 288 289 289 291 285 283 284 283 287 285 284 281 278 278 279 277 277 278 283 281 282 282 280 282 282 283 283 284 281
Wind_Speed
14 14 13 13 12 12 12 11 11 10 8 6 6 5 5 4 4 4 4 5 7 8 9 10 10 10 3 1 2 1 2 4 4 3 2 3 2 3 2 3 3 3 3 3 4 4 3
16 15 15 14 15 14 12 12 12 11 9 8 8 7 6 6 5 5 5 6 7 9 10 9 8 9 1 5 3 2 5 4 3 3 3 2 2 2 4 2 2 1 2 3 4 4 5
18 18 17 15 15 15 15 13 14 13 10 9 8 8 6 6 6 5 5 7 8 10 9 7 4 2 1 6 1 3 3 1 2 2 4 2 5 2 5 4 1 1 4 5 7 4 5
19 20 19 18 16 15 15 15 14 14 12 9 9 8 7 6 6 5 6 6 9 8 5 3 3 1 6 1 2 2 4 4 3 4 3 3 3 6 1 5 2 1 2 4 4 4 3
23 22 20 20 19 17 16 16 15 15 15 11 10 9 8 7 6 5 6 7 8 3 2 5 2 2 5 2 3 3 2 6 5 4 6 4 4 3 4 5 3 3 5 7 3 2 2
22 24 23 21 20 19 18 17 16 15 14 12 11 10 9 8 6 5 5 8 3 3 1 1 1 3 4 4 3 4 2 5 4 7 5 2 3 4 4 8 8 7 6 5 7 3 4
9 16 24 23 23 21 21 20 19 17 15 13 13 11 9 8 7 5 4 2 4 4 4 8 4 2 3 3 1 2 3 5 4 3 8 2 8 13 18 16 3 1 4 9 2 1 4
12 14 19 24 24 23 23 22 21 20 19 15 14 12 10 9 7 7 3 4 2 3 6 11 6 4 2 4 4 4 5 9 7 9 8 6 14 14 2 8 7 5 8 14 5 3 5
14 12 10 9 19 24 23 23 22 21 20 18 15 13 12 10 8 5 8 5 1 1 5 5 7 7 6 9 6 14 13 6 5 9 16 12 3 7 9 8 10 11 14 12 9 2 5
14 13 11 11 9 12 23 22 22 22 19 19 18 16 13 12 5 6 7 8 5 2 7 7 8 5 6 8 6 1 8 4 5 14 10 9 3 7 11 10 12 14 12 9 7 5 9
13 13 12 13 10 12 9 21 24 23 22 19 19 19 18 19 5 9 3 9 9 3 10 4 5 2 3 8 10 1 1 1 8 9 8 5 9 9 10 10 11 5 5 9 6 10 6
15 13 13 14 14 15 12 14 25 26 25 24 22 21 21 13 2 2 7 10 5 5 16 6 5 7 9 3 3 4 3 3 3 5 2 4 2 5 4 3 6 13 7 5 3 2 9
16 15 13 14 15 16 16 13 13 26 27 25 24 24 19 8 10 8 9 6 7 16 5 9 7 9 8 7 5 7 12 12 11 9 14 4 9 4 4 6 3 7 11 4 5 6 7
17 16 15 14 15 16 17 16 11 10 24 25 25 24 19 9 8 12 6 7 14 15 19 4 6 8 11 10 5 7 9 12 15 5 4 11 8 16 13 18 10 17 14 7 8 7 2
18 17 15 16 16 17 17 20 15 13 13 23 25 14 10 14 13 10 9 17 21 16 14 12 6 6 10 6 6 9 12 9 13 17 13 9 7 3 4 4 14 9 11 2 5 2 3
17 19 17 17 15 17 17 17 20 15 15 14 11 11 16 21 19 12 15 22 19 13 10 14 20 15 18 13 13 16 15 9 9 19 8 6 6 2 2 2 1 5 11 5 4 6 8
17 18 18 14 17 16 17 16 17 18 16 15 8 6 12 23 17 13 17 22 26 10 11 17 20 15 9 13 16 12 13 6 14 12 16 5 5 4 6 12 17 8 8 5 3 5 5
17 18 18 18 18 15 16 16 16 19 18 12 5 9 13 21 16 11 21 36 20 21 9 15 7 19 15 15 15 17 20 14 18 15 18 11 2 7 12 1 2 11 10 13 7 7 5
18 17 19 18 18 16 14 14 13 15 20 2 4 3 8 19 16 15 15 27 19 20 26 15 12 11 10 14 11 18 12 7 14 18 19 14 6 5 4 4 2 10 10 13 6 2 13
21 20 19 19 18 19 12 12 12 13 13 9 2 3 4 10 4 23 24 22 25 21 18 25 19 10 6 13 13 9 12 7 13 15 9 18 8 17 18 5 11 12 15 15 17 12 15
19 18 19 19 18 19 13 11 10 12 13 7 3 3 2 5 13 15 22 12 25 22 21 19 15 26 25 18 19 24 9 4 4 6 7 11 16 19 21 9 7 8 18 22 26 31 17
21 23 18 19 18 16 15 10 7 8 10 4 6 4 1 3 3 17 15 17 22 20 12 21 24 24 22 26 26 15 19 14 11 9 9 2 13 17 20 20 14 13 17 25 27 27 26
21 19 19 18 17 14 15 9 6 4 2 2 0 2 4 3 1 5 10 14 13 8 1 2 12 20 22 28 18 11 1 7 10 16 18 13 14 8 17 14 4 8 27 21 17 21 19
22 19 17 17 17 14 10 11 8 5 3 3 2 1 3 7 12 9 4 10 14 13 8 2 4 1 2 5 7 5 9 9 6 4 5 12 18 8 5 6 12 6 3 16 17 12 12
18 19 19 18 16 15 12 11 14 9 8 2 2 2 3 3 7 3 10 14 13 6 7 7 1 3 10 5 3 3 2 2 1 4 3 2 6 4 5 7 6 1 5 10 14 14 11
20 20 20 19 18 18 15 15 13 12 10 2 2 1 0 1 5 4 3 5 5 5 4 2 2 3 1 3 3 6 6 5 6 3 3 2 4 8 5 6 10 1 2 2 4 6 8
22 21 22 19 20 20 18 18 13 16 16 3 2 3 3 2 3 3 4 4 5 5 4 4 5 2 2 3 4 5 5 2 8 9 7 5 2 13 7 6 5 5 6 3 7 4 4
21 23 23 21 20 21 19 18 16 17 18 5 2 2 3 2 1 3 2 4 3 3 6 6 5 1 2 5 5 4 3 5 4 3 5 9 9 5 4 5 10 7 5 8 3 3 5
24 23 23 21 21 21 19 18 16 16 21 8 3 1 2 2 1 2 3 1 2 2 6 3 3 3 5 4 4 4 3 4 6 5 3 5 4 4 7 3 2 10 3 2 3 5 5
Wind_Direction
223 222 216 233 232 234 235 234 232 227 229 231 237 244 257 268 285 293 311 324 328 331 327 329 323 321 282 286 256 100 85 123 153 149 157 139 133 138 197 149 165 209 175 195 161 181 226
223 223 219 220 231 237 231 236 235 232 230 225 227 238 250 267 278 294 309 318 326 322 321 321 321 312 254 253 109 114 126 127 166 154 133 168 157 148 111 149 239 106 225 255 239 204 200
223 225 223 218 219 226 234 228 236 236 227 227 226 230 244 265 281 291 305 316 322 321 316 324 340 334 209 263 63 131 139 98 138 184 151 124 136 187 140 141 79 40 281 274 223 195 213
227 228 223 221 218 218 220 227 225 238 237 218 229 237 238 252 270 288 299 313 320 322 325 6 351 265 258 41 129 147 141 96 84 53 82 102 110 98 63 126 94 260 257 254 128 167 141
222 226 224 221 220 217 214 219 223 233 239 215 222 235 238 245 256 271 291 310 310 304 312 331 274 283 254 128 179 145 197 144 108 69 66 87 61 71 153 191 200 210 257 228 282 183 149
244 222 220 217 221 215 216 209 215 221 223 209 217 225 236 241 244 253 280 292 292 284 226 258 60 247 171 206 142 134 66 132 123 130 112 93 102 178 179 199 232 202 219 229 240 161 210
322 267 219 217 217 215 218 216 209 211 214 209 208 217 223 234 232 223 265 242 227 211 219 209 181 288 123 89 145 137 159 119 121 162 183 120 205 214 212 217 258 174 221 253 187 153 246
312 334 241 219 216 214 214 216 209 208 202 212 207 207 208 214 208 216 196 234 275 35 286 232 228 263 168 194 127 189 177 177 176 191 141 165 228 228 135 194 211 226 245 252 271 204 241
336 315 314 322 243 216 217 215 211 210 207 199 197 193 195 190 192 207 219 215 104 222 263 248 195 199 187 166 212 181 180 159 186 168 195 211 152 182 171 164 200 226 231 239 262 148 212
346 334 308 280 285 283 222 215 215 211 209 200 192 186 183 163 186 183 217 214 191 330 265 229 210 212 152 154 218 90 187 165 186 208 180 236 157 151 183 210 200 235 220 238 236 241 261
332 330 338 316 267 265 301 231 216 210 205 205 187 184 175 176 143 187 180 153 154 246 272 123 143 80 134 186 123 164 136 138 181 166 183 194 177 184 203 212 186 260 142 206 220 237 268
323 321 327 327 322 270 267 282 235 212 206 200 189 182 173 191 201 179 124 131 149 191 240 172 134 162 151 143 114 116 146 62 91 132 268 281 48 209 210 94 186 137 105 89 96 206 250
308 321 317 319 318 308 262 259 283 220 204 197 190 182 175 167 194 153 143 161 171 222 128 178 174 175 173 152 150 169 172 184 179 186 222 187 217 179 168 127 90 188 164 190 221 210 250
304 306 313 310 315 316 300 244 246 267 210 196 190 179 194 182 162 151 158 183 217 222 208 98 120 136 181 153 182 159 154 196 211 198 143 200 226 189 188 214 183 193 193 199 214 204 215
295 302 300 302 309 316 314 240 225 234 243 214 191 192 191 186 163 165 176 200 219 204 187 144 128 164 197 196 172 168 200 216 201 192 206 192 245 192 207 139 169 176 214 164 113 97 255
292 292 300 308 303 307 310 315 213 216 233 242 204 203 198 175 165 175 193 215 227 205 140 178 206 191 184 182 176 192 178 189 201 196 215 200 241 220 141 141 186 205 144 168 216 213 230
287 291 300 299 298 304 310 312 252 207 223 240 227 218 174 171 173 199 203 221 218 211 180 181 211 201 199 175 197 199 197 170 206 197 194 153 235 135 140 209 188 171 193 210 214 221 231
279 287 292 307 313 291 302 310 309 224 204 232 240 230 166 158 197 201 207 210 210 210 209 228 232 221 206 180 196 206 203 208 191 152 176 197 186 195 207 127 313 236 223 191 200 186 250
280 279 283 290 289 283 292 304 317 327 197 218 213 239 209 172 203 198 222 216 226 203 205 208 209 200 192 187 214 207 200 190 168 169 172 169 205 217 217 213 179 219 202 218 210 44 208
266 271 279 282 297 300 274 293 306 324 315 188 264 229 199 213 192 203 205 219 210 221 222 216 227 208 175 214 224 207 215 187 200 198 190 160 181 210 224 203 154 202 205 207 206 227 223
267 267 269 278 282 296 263 281 299 312 320 206 198 209 249 203 200 195 202 206 221 219 214 201 215 212 214 224 230 233 181 148 207 217 186 192 223 218 238 231 205 207 193 197 209 223 216
272 267 259 271 269 278 259 260 288 313 330 233 175 170 114 314 304 206 182 207 214 215 181 212 221 217 221 218 212 214 225 203 200 177 191 190 230 214 242 241 234 235 217 204 211 223 236
304 275 273 264 271 264 281 233 252 295 348 302 115 20 136 252 351 261 215 197 199 145 106 194 229 225 216 226 229 247 170 220 197 182 189 182 206 180 236 215 188 259 226 205 209 217 221
293 301 291 269 270 270 278 232 223 226 214 134 274 145 197 213 200 204 194 213 203 196 170 181 94 141 128 112 86 52 52 62 95 30 234 190 203 212 228 129 219 280 8 217 211 195 211
278 288 293 292 271 271 263 244 211 199 185 129 160 259 138 236 212 161 204 215 222 188 182 184 108 359 155 88 97 109 37 86 63 16 74 118 162 153 188 208 329 107 200 170 178 231 196
268 274 281 294 287 271 270 247 225 190 182 136 148 140 234 136 226 112 166 175 153 153 118 109 54 352 2 113 153 189 191 161 191 151 20 141 216 203 154 208 224 277 172 175 129 251 198
273 265 269 275 286 282 272 248 226 194 182 143 151 194 116 215 219 172 172 174 121 123 119 135 153 105 7 134 184 191 191 150 167 178 168 158 183 215 198 222 273 199 168 164 147 238 124
272 274 262 260 273 275 269 248 235 203 178 152 128 204 130 207 256 213 185 137 110 174 151 139 120 173 136 196 181 177 185 193 139 136 178 179 168 188 174 217 249 142 97 179 155 31 136
272 270 267 256 254 269 263 251 243 222 183 151 139 175 95 159 117 350 313 80 117 73 125 182 3 155 149 153 173 134 160 181 155 188 172 211 204 183 202 203 52 170 52 130 69 139 177